Wind_Speed
27 23 31 28 26 24 24 23 20 17 13 12 10 9 6 3 1 1 2 3 5 7 9 11 14 16 18
26 31 35 32 29 28 26 23 21 19 16 13 11 10 8 5 3 2 2 4 5 6 8 11 13 15 17
24 36 36 34 31 27 26 22 20 18 17 14 12 11 10 7 5 4 4 4 5 6 8 11 13 15 17
24 33 37 35 34 33 28 25 22 20 17 16 15 13 11 8 6 5 5 5 5 5 8 11 14 16 17
26 26 31 35 40 36 31 27 23 22 21 20 18 16 13 10 9 8 7 6 5 5 8 11 13 16 17
26 30 31 32 34 38 34 27 11 24 24 22 21 19 14 12 10 10 8 7 6 5 8 11 13 16 17
41 38 34 44 41 37 37 34 20 12 29 25 23 21 16 13 11 9 9 8 7 5 8 11 13 15 17
32 32 33 37 41 41 40 34 24 13 23 13 21 19 15 13 10 9 10 10 7 6 8 10 12 14 17
25 24 24 25 34 34 32 32 15 13 24 10 14 16 13 13 11 10 9 8 6 6 7 10 12 15 15
23 20 19 23 24 33 33 35 20 10 24 17 15 15 7 13 12 11 9 9 6 5 8 11 13 13 14
26 24 24 26 28 32 28 32 32 7 16 28 17 19 5 6 10 10 9 9 7 7 7 9 11 10 13
31 30 30 30 29 28 25 26 27 12 9 32 8 18 12 7 5 10 10 8 7 5 7 10 9 9 9
35 34 33 31 29 28 25 24 21 16 13 27 14 16 12 6 6 9 9 8 6 5 8 9 11 12 15
39 35 31 30 32 32 28 25 22 16 15 18 14 14 7 7 8 10 9 4 5 6 8 7 7 9 12
38 36 34 35 32 30 28 27 21 22 18 16 14 9 7 7 8 8 8 5 3 6 9 11 6 10 10
41 40 40 40 37 30 28 27 22 23 23 20 14 11 9 6 7 9 8 5 2 5 9 13 10 11 8
42 42 41 38 38 34 31 25 21 24 22 16 17 14 8 2 5 8 7 4 2 5 7 9 14 14 9
Wind_Direction
192 190 193 196 194 199 202 205 207 211 210 208 202 202 203 193 230 320 12 20 32 31 24 19 11 7 4
179 185 195 195 198 197 200 209 213 213 216 215 212 211 215 219 233 272 321 350 0 8 12 10 8 3 2
170 186 188 191 193 197 202 205 211 216 215 214 216 218 224 231 238 260 291 322 340 355 358 359 0 2 2
172 173 184 188 196 188 192 201 205 208 211 212 214 217 221 229 235 257 279 302 324 339 347 353 356 359 1
165 170 178 181 191 190 194 197 204 207 208 210 212 219 218 224 238 247 257 279 306 322 337 348 354 355 356
171 177 187 189 189 192 189 178 191 212 213 213 216 222 219 232 239 244 244 275 298 310 331 343 346 351 352
191 189 188 197 192 194 196 195 194 201 207 211 215 221 227 228 231 239 252 268 284 302 324 335 343 346 348
212 210 213 204 206 205 201 200 203 209 200 204 214 218 220 225 229 242 248 263 274 303 321 332 339 341 345
219 224 223 215 205 198 194 190 191 202 198 207 198 202 214 217 225 234 239 238 266 295 322 325 333 333 337
207 212 217 210 214 212 202 186 181 182 205 197 186 184 183 215 217 224 226 226 245 271 305 320 327 330 334
197 196 191 196 200 207 209 206 190 196 202 190 189 186 169 154 195 209 219 224 235 273 297 322 329 331 335
186 185 188 192 195 196 201 204 202 212 196 191 194 191 183 158 170 207 212 222 247 277 319 331 332 336 346
189 191 192 192 184 185 193 196 201 212 188 196 211 192 187 175 184 192 194 223 245 285 323 333 336 340 339
193 192 186 179 182 185 181 186 180 169 181 192 199 180 194 205 208 191 200 200 216 300 324 339 330 342 343
193 186 181 180 182 184 182 177 180 170 164 167 169 182 186 208 195 197 194 203 261 314 323 336 6 358 351
194 190 182 181 181 179 180 183 181 179 173 167 175 166 167 189 208 197 201 201 271 320 326 330 338 357 355
192 186 182 180 178 177 180 187 182 181 179 185 182 176 169 189 196 201 207 209 291 319 319 326 330 339 341
Height
890 897 902 907 911 916 918 920 922 925 926 926 927 928 928 929 931 930 928 927 925 925 924 922 921 919 916
883 890 897 903 908 912 915 918 920 923 924 926 927 927 928 929 929 929 928 926 925 924 922 920 918 917 914
876 882 891 899 904 909 913 916 918 921 923 924 926 926 926 927 927 928 927 925 924 923 921 919 917 915 913
872 879 885 894 899 903 908 912 914 917 920 922 922 923 924 925 926 926 926 925 924 922 921 918 916 914 911
868 875 880 886 888 895 901 907 912 913 915 917 919 920 921 922 923 923 922 922 922 922 920 918 916 912 909
861 865 871 877 884 889 895 902 908 908 910 912 915 917 918 919 921 921 920 921 921 920 919 917 914 912 909
849 856 863 865 875 885 889 892 895 900 905 908 910 912 914 916 917 918 919 919 919 918 917 916 913 910 907
849 852 856 861 867 873 882 889 896 899 902 906 907 910 912 915 917 917 918 918 918 917 915 914 912 910 907
850 855 857 860 865 872 879 887 892 895 899 903 905 909 911 913 915 916 915 916 915 914 912 911 909 907 905
847 852 856 860 862 868 871 878 885 892 895 901 901 904 908 908 910 912 912 912 911 910 910 908 906 904 902
844 849 852 857 859 865 871 875 880 883 886 893 896 899 902 905 908 909 909 909 908 907 907 907 905 903 901
840 845 849 852 857 863 870 874 880 883 883 889 892 895 898 902 904 906 907 908 907 907 906 905 903 901 899
836 839 844 849 856 861 868 871 877 881 882 886 891 893 896 898 900 903 905 906 906 905 903 902 900 898 894
828 835 841 848 854 857 863 868 874 879 882 886 890 892 895 897 898 900 902 903 902 901 900 900 897 894 892
824 831 838 844 851 856 859 866 871 874 880 884 888 890 894 896 897 898 899 900 900 898 897 898 897 893 889
817 824 830 838 844 852 857 863 868 873 877 882 885 889 893 895 896 895 896 897 896 895 894 894 891 890 888
810 817 824 833 839 846 851 860 865 872 877 879 882 887 890 891 892 893 893 893 893 894 891 890 889 888 885